Regional Weather Roundup
Issued by NWS State College, PA

Home | Current Version | Previous Version | Text Only | Print | Product List | Glossary Off
Versions: 1 2 3 4 5 6 7 8 9 10 11 12 13 14 15 16 17 18 19 20 21 22 23 24 25 26 27 28 29 30 31 32 33 34 35 36 37 38 39 40 41 42 43 44 45 46 47 48 49 50

000
ASUS41 KCTP 021110
RWRCTP

REGIONAL WEATHER ROUNDUP
NATIONAL WEATHER SERVICE STATE COLLEGE PA
700 AM EDT THU OCT 02 2014

Note: "fair" indicates few or no clouds below 12,000 feet with no
significant weather and/or obstructions to visibility.

* = STATION THAT DOES NOT REPORT PRECIPITATION /E.G. RAIN...SNOW...ETC/
    THUNDER OR FOG.

PAZ002>004-007>009-013>016-020>023-029>032-021200-
WESTERN PENNSYLVANIA

CITY           SKY/WX    TMP DP  RH WIND       PRES   REMARKS
ERIE           CLEAR     56  52  86 S7        30.06S
MEADVILLE      CLEAR     53  52  96 CALM      30.08S FOG
FRANKLIN*      CLOUDY    52  48  87 E5        30.10S VSB<1/4
NEW CASTLE     FOG       49  49 100 CALM      30.10R VSB<1/4
BEAVER COUNTY  FOG       52  52 100 SE3       30.08  VSB 1/8
BUTLER*        CLOUDY    52  48  87 CALM      30.11R VSB 1/4
PITTSBURGH INT FOG       52  52 100 CALM      30.08R VSB 1/16
PITTSBURGH     FOG       53  51  93 SE3       30.08R VSB<1/4
INDIANA*       CLOUDY    52  50  93 CALM      30.14R
LATROBE        PTCLDY    50  50 100 CALM      30.10S FOG
WASHINGTON CO* CLOUDY    46  45  93 CALM      30.10R VSB 1/4
$$

PAZ004>006-010>012-017>019-024>028-033>037-041-042-045-046-049>053-021200-
CENTRAL PENNSYLVANIA

CITY           SKY/WX    TMP DP  RH WIND       PRES   REMARKS
BRADFORD       FOG       48  47  96 SE3       30.12S VSB 1/4
DUBOIS         FOG       52  52 100 E6        30.11R VSB 1/4
CLEARFIELD     CLOUDY    52  52 100 NE5       30.14R FOG
JOHNSTOWN      MOCLDY    56  54  93 CALM      30.12R FOG
ALTOONA        FOG       53  53 100 NE3       30.13R VSB 1/2
STATE COLLEGE  CLOUDY    54  54 100 CALM      30.14R FOG
WILLIAMSPORT   CLOUDY    56  54  93 N3        30.12R FOG
SELINSGROVE    FOG       54  54 100 CALM      30.13R VSB 1/4
FT INDIANTOWN  FOG       50  50 100 CALM      30.13R VSB 1/4
CAPITAL CITY   CLOUDY    60  56  86 CALM      30.13R
HARRISBURG     PTCLDY    57  56  96 CALM      30.12S FOG
YORK           FOG       56  56 100 CALM      30.13R VSB 1/2
$$

PAZ038>040-043-044-047-048-054-055-060>062-067>071-021200-
EASTERN PENNSYLVANIA

CITY           SKY/WX    TMP DP  RH WIND       PRES   REMARKS
SCRANTON       CLOUDY    57  54  89 CALM      30.13R
MOUNT POCONO   CLOUDY    55  52  89 E6        30.15R
ALLENTOWN      CLOUDY    61  55  82 E9        30.13R
QUAKERTOWN*    PTSUNNY   59  57  94 CALM      30.13R
READING        CLEAR     54  52  93 CALM      30.11S
LANCASTER      PTCLDY    54  53  97 CALM      30.12S FOG
COATESVILLE    MOSUNNY   54  54 100 CALM      30.13R
POTTSTOWN      CLOUDY    57  55  93 CALM      30.13R
BLUE BELL      CLOUDY    61  57  88 CALM      30.11R
DOYLESTOWN     CLOUDY    58  57  97 NE3       30.12R
WILLOW GROVE   NOT AVBL
NORTH PHILA    CLOUDY    63  54  72 NE12      30.13R
PHILADELPHIA   MOCLDY    63  56  78 NE8       30.11R
$$



USA.gov is the U.S. government's official web portal to all federal, state and local government web resources and services.